When you browse on this site, cookies collect data to enhance your experience and personalize the content and advertising you see.
Visit our Privacy Policy to learn more. By continuing to use the site, you agree to this use of cookies and data.
  • In Österreich
  • Länderverzeichnis
  • Für 7 Tage
  • Wassertemperatur
  • Satellitenkarten
  • Wetterkarte
  • News
  • Widgets
  • user-avatar
    Anmelden

    Stündliche Wetter Stoughton

    Heute, 20 April, Samstag

    Zeit Temperatur Niederschläge Wind Luftdruck Luftfeuchtigkeit
    00:00 +20°C° 0.2 mm 6 m/S 752 mmHg 87%
    01:00 +18°C° 0 mm 8 m/S 751 mmHg 87%
    02:00 +18°C° 0.3 mm 7 m/S 751 mmHg 88%
    03:00 +19°C° 0.3 mm 6 m/S 751 mmHg 88%
    04:00 +20°C° 0.3 mm 6 m/S 752 mmHg 88%
    05:00 +20°C° 0.3 mm 6 m/S 752 mmHg 89%
    06:00 +20°C° 0.3 mm 5 m/S 753 mmHg 89%
    07:00 +19°C° 0 mm 6 m/S 753 mmHg 89%
    08:00 +19°C° 0.8 mm 6 m/S 753 mmHg 88%
    09:00 +20°C° 0.8 mm 6 m/S 753 mmHg 87%
    10:00 +20°C° 0.8 mm 6 m/S 754 mmHg 86%
    11:00 +20°C° 0.7 mm 6 m/S 754 mmHg 86%
    12:00 +20°C° 0.7 mm 6 m/S 754 mmHg 86%
    13:00 +21°C° 0.7 mm 7 m/S 754 mmHg 85%
    14:00 +21°C° 0.4 mm 7 m/S 754 mmHg 84%
    15:00 +21°C° 0.4 mm 8 m/S 754 mmHg 83%
    16:00 +21°C° 0.4 mm 9 m/S 754 mmHg 81%
    17:00 +21°C° 0.1 mm 8 m/S 754 mmHg 82%
    18:00 +20°C° 0.1 mm 8 m/S 754 mmHg 83%
    19:00 +20°C° 0.1 mm 8 m/S 754 mmHg 84%
    20:00 +20°C° 0 mm 7 m/S 755 mmHg 85%
    21:00 +18°C° 0 mm 7 m/S 755 mmHg 86%
    22:00 +18°C° 0 mm 7 m/S 755 mmHg 87%
    23:00 +17°C° 0.6 mm 6 m/S 755 mmHg 87%

    Morgen, 21 April, Sonntag

    Zeit Temperatur Niederschläge Wind Luftdruck Luftfeuchtigkeit
    00:00 +17°C° 0.6 mm 5 m/S 755 mmHg 88%
    01:00 +17°C° 0.6 mm 4 m/S 755 mmHg 89%
    02:00 +17°C° 0.3 mm 3 m/S 755 mmHg 88%
    03:00 +16°C° 0.3 mm 2 m/S 755 mmHg 87%
    04:00 +15°C° 0.3 mm 2 m/S 755 mmHg 86%
    05:00 +15°C° 0.3 mm 2 m/S 755 mmHg 86%
    06:00 +15°C° 0.3 mm 1 m/S 756 mmHg 85%
    07:00 +15°C° 0.3 mm 1 m/S 756 mmHg 84%
    08:00 +15°C° 0.1 mm 1 m/S 756 mmHg 84%
    09:00 +15°C° 0.1 mm 1 m/S 757 mmHg 84%
    10:00 +15°C° 0.1 mm 1 m/S 757 mmHg 84%
    11:00 +15°C° 0.5 mm 1 m/S 757 mmHg 86%
    12:00 +15°C° 0.5 mm 1 m/S 758 mmHg 88%
    13:00 +14°C° 0.5 mm 1 m/S 758 mmHg 90%
    14:00 +14°C° 0 mm 1 m/S 758 mmHg 90%
    15:00 +14°C° 0 mm 1 m/S 758 mmHg 91%
    16:00 +14°C° 0 mm 1 m/S 758 mmHg 91%
    17:00 +14°C° 0 mm 1 m/S 758 mmHg 91%
    18:00 +14°C° 0 mm 1 m/S 758 mmHg 92%
    19:00 +13°C° 0 mm 1 m/S 759 mmHg 92%
    20:00 +13°C° 0 mm 1 m/S 759 mmHg 92%
    21:00 +13°C° 0 mm 1 m/S 759 mmHg 92%
    22:00 +11°C° 0 mm 0 m/S 759 mmHg 92%
    23:00 +12°C° 0 mm 1 m/S 759 mmHg 92%

    übermorgen, 22 April, Montag

    Zeit Temperatur Niederschläge Wind Luftdruck Luftfeuchtigkeit
    00:00 +12°C° 0 mm 1 m/S 759 mmHg 92%
    01:00 +11°C° 0 mm 1 m/S 759 mmHg 92%
    02:00 +11°C° 0 mm 1 m/S 758 mmHg 92%
    03:00 +11°C° 0 mm 1 m/S 758 mmHg 91%
    04:00 +9°C° 0 mm 0 m/S 758 mmHg 91%
    05:00 +11°C° 0 mm 1 m/S 758 mmHg 88%
    06:00 +12°C° 0 mm 1 m/S 758 mmHg 85%
    07:00 +13°C° 0 mm 1 m/S 758 mmHg 81%
    08:00 +15°C° 0 mm 1 m/S 758 mmHg 73%
    09:00 +17°C° 0 mm 2 m/S 758 mmHg 64%
    10:00 +18°C° 0 mm 2 m/S 757 mmHg 56%
    11:00 +19°C° 0 mm 3 m/S 757 mmHg 54%
    12:00 +20°C° 0 mm 3 m/S 757 mmHg 53%
    13:00 +20°C° 0 mm 3 m/S 757 mmHg 51%
    14:00 +20°C° 0 mm 3 m/S 757 mmHg 56%
    15:00 +19°C° 0 mm 3 m/S 756 mmHg 61%
    16:00 +18°C° 0 mm 3 m/S 756 mmHg 65%
    17:00 +17°C° 0 mm 3 m/S 756 mmHg 72%
    18:00 +14°C° 0 mm 3 m/S 756 mmHg 80%
    19:00 +13°C° 0 mm 3 m/S 756 mmHg 87%
    20:00 +12°C° 0.1 mm 3 m/S 757 mmHg 87%
    21:00 +12°C° 0.1 mm 3 m/S 757 mmHg 88%
    22:00 +12°C° 0.1 mm 3 m/S 757 mmHg 88%
    23:00 +12°C° 0.9 mm 4 m/S 757 mmHg 89%

    23 April, Dienstag

    Zeit Temperatur Niederschläge Wind Luftdruck Luftfeuchtigkeit
    00:00 +12°C° 0.9 mm 4 m/S 756 mmHg 89%
    01:00 +12°C° 0.9 mm 4 m/S 756 mmHg 90%
    02:00 +11°C° 1.6 mm 4 m/S 756 mmHg 90%
    03:00 +11°C° 1.6 mm 4 m/S 756 mmHg 90%
    04:00 +10°C° 1.6 mm 4 m/S 756 mmHg 90%
    05:00 +10°C° 0.3 mm 4 m/S 756 mmHg 89%
    06:00 +11°C° 0.3 mm 4 m/S 757 mmHg 88%
    07:00 +11°C° 0.3 mm 4 m/S 757 mmHg 86%
    08:00 +11°C° 0 mm 4 m/S 757 mmHg 83%
    09:00 +12°C° 0 mm 3 m/S 757 mmHg 79%
    10:00 +13°C° 0 mm 3 m/S 757 mmHg 76%
    11:00 +14°C° 0 mm 3 m/S 757 mmHg 72%
    12:00 +16°C° 0 mm 2 m/S 756 mmHg 67%
    13:00 +17°C° 0 mm 2 m/S 756 mmHg 63%
    14:00 +17°C° 0 mm 2 m/S 756 mmHg 62%
    15:00 +17°C° 0 mm 2 m/S 755 mmHg 61%
    16:00 +18°C° 0 mm 2 m/S 755 mmHg 60%
    17:00 +16°C° 0 mm 2 m/S 755 mmHg 67%
    18:00 +14°C° 0 mm 2 m/S 755 mmHg 75%
    19:00 +12°C° 0 mm 2 m/S 755 mmHg 82%
    20:00 +10°C° 0 mm 2 m/S 755 mmHg 84%
    21:00 +10°C° 0 mm 3 m/S 755 mmHg 87%
    22:00 +9°C° 0 mm 3 m/S 755 mmHg 89%
    23:00 +10°C° 0 mm 3 m/S 754 mmHg 90%

    24 April, Mittwoch

    Zeit Temperatur Niederschläge Wind Luftdruck Luftfeuchtigkeit
    00:00 +10°C° 0 mm 3 m/S 753 mmHg 90%
    01:00 +10°C° 0 mm 3 m/S 753 mmHg 91%
    02:00 +11°C° 0.2 mm 4 m/S 752 mmHg 90%
    03:00 +12°C° 0.2 mm 4 m/S 751 mmHg 89%
    04:00 +12°C° 0.2 mm 4 m/S 750 mmHg 89%
    05:00 +13°C° 0.3 mm 4 m/S 749 mmHg 88%
    06:00 +14°C° 0.3 mm 4 m/S 749 mmHg 88%
    07:00 +15°C° 0.3 mm 4 m/S 749 mmHg 87%
    08:00 +16°C° 0.1 mm 5 m/S 749 mmHg 83%
    09:00 +16°C° 0.1 mm 5 m/S 749 mmHg 79%
    10:00 +17°C° 0.1 mm 5 m/S 749 mmHg 75%
    11:00 +19°C° 0 mm 5 m/S 748 mmHg 63%
    12:00 +20°C° 0 mm 5 m/S 748 mmHg 51%
    13:00 +21°C° 0 mm 6 m/S 748 mmHg 40%
    14:00 +21°C° 0 mm 6 m/S 749 mmHg 39%
    15:00 +20°C° 0 mm 6 m/S 749 mmHg 38%
    16:00 +19°C° 0 mm 6 m/S 749 mmHg 38%
    17:00 +16°C° 0 mm 5 m/S 749 mmHg 43%
    18:00 +14°C° 0 mm 5 m/S 750 mmHg 49%
    19:00 +12°C° 0 mm 4 m/S 751 mmHg 54%
    20:00 +12°C° 0 mm 4 m/S 751 mmHg 57%
    21:00 +11°C° 0 mm 4 m/S 751 mmHg 59%
    22:00 +10°C° 0 mm 3 m/S 752 mmHg 62%
    23:00 +9°C° 0 mm 3 m/S 752 mmHg 63%

    25 April, Donnerstag

    Zeit Temperatur Niederschläge Wind Luftdruck Luftfeuchtigkeit
    00:00 +9°C° 0 mm 3 m/S 752 mmHg 64%
    01:00 +8°C° 0 mm 3 m/S 752 mmHg 66%
    02:00 +8°C° 0 mm 3 m/S 752 mmHg 66%
    03:00 +7°C° 0 mm 3 m/S 752 mmHg 66%
    04:00 +7°C° 0 mm 3 m/S 752 mmHg 65%
    05:00 +7°C° 0 mm 3 m/S 752 mmHg 62%
    06:00 +7°C° 0 mm 4 m/S 753 mmHg 58%
    07:00 +8°C° 0 mm 4 m/S 753 mmHg 55%
    08:00 +10°C° 0 mm 4 m/S 753 mmHg 50%
    09:00 +12°C° 0 mm 3 m/S 753 mmHg 46%
    10:00 +14°C° 0 mm 3 m/S 753 mmHg 41%
    11:00 +16°C° 0 mm 3 m/S 753 mmHg 39%
    12:00 +18°C° 0 mm 3 m/S 753 mmHg 36%
    13:00 +19°C° 0 mm 2 m/S 753 mmHg 33%
    14:00 +19°C° 0 mm 2 m/S 753 mmHg 33%
    15:00 +19°C° 0 mm 2 m/S 753 mmHg 33%
    16:00 +20°C° 0 mm 2 m/S 753 mmHg 33%
    17:00 +18°C° 0 mm 2 m/S 753 mmHg 40%
    18:00 +16°C° 0 mm 2 m/S 753 mmHg 47%
    19:00 +14°C° 0 mm 2 m/S 754 mmHg 53%
    20:00 +13°C° 0 mm 1 m/S 754 mmHg 58%
    21:00 +12°C° 0 mm 1 m/S 754 mmHg 63%
    22:00 +11°C° 0 mm 1 m/S 754 mmHg 67%
    23:00 +10°C° 0 mm 0 m/S 754 mmHg 69%
    Mehr zeigen